カタログに戻る

CZ-6A DEB

運用中PO
NORAD 54920·DEBRIS·🇨🇳 China

打ち上げ Nov 11, 2022 から Taiyuan Satellite Launch Center

Loading…

次のパス (今後24時間)

TLE

最新Source: Space-Track

元期: Sep 13, 2026, 18:17 UTC

1 54920U 22151RH  26256.76225130  .00009285  00000-0  11250-2 0  9993
2 54920  98.6242 338.3600 0058422 334.4156  25.4167 14.82649283200399

AllMySatでCZ-6A DEBをリアルタイム追跡

Download on the App Store